Location: Ku?niki
(51.4449°N, 17.8974°E)
Time: 07:30:14
(UTC+00:00)

CZ-2C R/B - Pass Details

Date: 18 September 2020
Orbit: 704 x 907 km, 98.1° (Epoch: 22 October)

Event Time Altitude Azimuth Distance (km) Brightness Sun altitude
Rises 17:57:08 0° 177° (S) 3,254 6.1 -10.3°
Reaches altitude 10° 17:59:26 10° 182° (S) 2,360 5.4 -10.7°
Maximum altitude 18:04:34 57° 260° (W) 974 3.9 -11.5°
Drops below altitude 10° 18:10:04 10° 339° (NNW) 2,508 6.2 -12.3°
Sets 18:12:34 0° 344° (NNW) 3,476 6.9 -12.7°
